Location: ?????????
(53.2086°N, 54.0693°E)
Time: 04:38:32
(UTC+00:00)

Cosmos 2219 Rocket - Pass Details

Date: 08 December 2019
Orbit: 826 x 848 km, 71.0° (Epoch: 21 January)

Event Time Altitude Azimuth Distance (km) Brightness Sun altitude
Rises 14:54:34 0° 234° (SW) 3,371 6.3 -23.8°
Reaches altitude 10° 14:57:06 10° 241° (WSW) 2,443 5.5 -24.1°
Maximum altitude 15:02:27 44° 313° (NW) 1,154 3.1 -24.9°
Enters shadow 15:05:21 25° 10° (N) 1,649 3.5 -25.4°
